This is the latest recevied weather packets stored in our database for station/object E24OWX-1. If no packets are shown the sender has not sent any weather packets the latest 10 day(s).
| Time | Temp. | Humidity | Pressure | Rain* | Wind** | Luminosity | Snow |
|---|---|---|---|---|---|---|---|
| 1778149591 | 31.11° C | 99% | 1003 hPa | - | - | 0 W/m² | - |
| 1778148669 | 30.56° C | 99% | 1003 hPa | - | - | 0 W/m² | - |
| 1778147732 | 30° C | 99% | 1003 hPa | - | - | 0 W/m² | - |
| 1778143472 | 37.22° C | 95% | 1003 hPa | - | - | 0 W/m² | - |
| 1778142551 | 40° C | 79% | 1002 hPa | - | - | 0 W/m² | - |
| 1778141629 | 39.44° C | 76% | 1002 hPa | - | - | 0 W/m² | - |
| 1778140707 | 39.44° C | 83% | 1002 hPa | - | - | 0 W/m² | - |
| 1778139784 | 38.89° C | 80% | 1002 hPa | - | - | 0 W/m² | - |
| 1778138862 | 38.89° C | 83% | 1003 hPa | - | - | 0 W/m² | - |
| 1778137945 | 38.89° C | 88% | 1003 hPa | - | - | 0 W/m² | - |
| 1778137018 | 38.89° C | 92% | 1003 hPa | - | - | 0 W/m² | - |
| 1778136097 | 38.89° C | 93% | 1004 hPa | - | - | 0 W/m² | - |
| 1778135176 | 38.33° C | 96% | 1004 hPa | - | - | 0 W/m² | - |
| 1778134253 | 38.33° C | 97% | 1004 hPa | - | - | 0 W/m² | - |
| 1778133331 | 37.78° C | 99% | 1005 hPa | - | - | 0 W/m² | - |
| 1778132409 | 36.67° C | 99% | 1005 hPa | - | - | 0 W/m² | - |
| 1778131487 | 36.11° C | 99% | 1006 hPa | - | - | 0 W/m² | - |
| 1778130565 | 36.67° C | 99% | 1006 hPa | - | - | 0 W/m² | - |
| 1778129643 | 36.67° C | 99% | 1006 hPa | - | - | 0 W/m² | - |
| 1778128721 | 37.22° C | 99% | 1006 hPa | - | - | 0 W/m² | - |
| 1778127799 | 36.67° C | 99% | 1007 hPa | - | - | 0 W/m² | - |
| 1778126877 | 37.22° C | 99% | 1007 hPa | - | - | 0 W/m² | - |
| 1778125954 | 36.67° C | 99% | 1007 hPa | - | - | 0 W/m² | - |
| 1778125032 | 36.67° C | 99% | 1007 hPa | - | - | 0 W/m² | - |
| 1778124111 | 36.11° C | 99% | 1007 hPa | - | - | 0 W/m² | - |
* Rain since midnight (hover to see other rain measurements)
** Current wind speed in m/s (hover to see current wind gust speed)